Back to catalog

SL-6 DEB

AliveHEO
NORAD 13910·DEBRIS·🇷🇺 Russia

Launched Sep 11, 1981 from Plesetsk Cosmodrome

Loading…

Next Passes (next 24 hours)

TLE

FreshSource: Space-Track

Epoch: Sep 5, 2026, 15:51 UTC

1 13910U 81088K   26248.66051676 -.00000010  00000-0  11050-2 0  9999
2 13910  63.2336  13.7988 4596973 313.8421  16.2949  5.43020724 71994

Track SL-6 DEB in real time with AllMySat

Download on the App Store